RH
7 7 7 7 8 9 10 11 19 20 15 15 15 15 20 27 29 29 40 53 59 67 70 68 74 76 76 80 79 72 66 73 80 76 82 93 94 90 75 64 60 60 63 64 64 65 65 64 65 66 65 59 53 56 61 64 66 66 64 61 58 56 53 50 47 44 43 41 38 36 32 27 23 20 17 16 15 16 16 17 17 16 16 15 13 11 8 7 6 5 4 3 3 3 3 3 3
5 5 5 6 6 6 6 6 9 10 8 9 9 10 15 21 26 31 44 55 63 78 83 79 75 73 79 81 82 83 78 79 84 82 84 89 88 81 67 62 67 68 67 65 60 57 56 56 56 59 62 61 55 51 56 60 62 64 63 61 59 56 54 52 50 48 48 46 42 39 36 33 27 23 21 19 19 19 19 18 18 17 17 17 15 11 9 7 6 5 5 4 3 3 3 3 3
5 5 4 5 5 4 4 4 5 5 4 4 5 8 14 23 29 41 58 60 65 81 88 92 86 75 84 91 87 89 89 82 81 85 82 82 87 85 75 72 76 71 67 64 58 53 51 50 50 52 56 59 56 51 51 54 57 60 60 60 59 58 55 54 53 52 53 53 49 42 39 37 32 27 23 22 21 21 21 20 19 18 18 19 16 12 9 7 6 5 5 4 3 3 3 4 3
5 5 5 5 5 5 4 4 4 4 4 4 5 10 17 25 32 51 70 70 75 91 93 91 91 84 88 94 86 85 90 82 76 82 82 78 79 82 82 81 80 72 65 61 56 53 52 51 52 53 54 56 56 50 48 50 53 55 57 58 58 58 56 55 54 54 53 55 53 46 41 38 36 31 26 23 22 22 22 21 20 20 18 18 17 12 9 7 6 5 5 4 4 4 3 4 3
6 6 6 6 6 5 5 5 5 5 5 6 8 12 19 24 32 54 69 73 86 93 92 89 87 86 86 88 84 85 88 83 82 87 84 78 78 79 78 78 78 73 67 62 56 52 54 55 56 57 58 57 56 50 45 45 48 51 53 54 56 57 55 55 53 52 50 51 52 49 43 38 36 33 29 26 23 23 23 23 22 22 20 17 16 13 9 7 6 5 5 4 4 4 4 4 4
8 8 8 8 7 7 7 6 7 7 7 7 10 12 16 24 33 49 61 74 92 93 95 94 84 87 90 87 90 92 89 89 92 93 83 76 86 88 78 74 73 70 66 62 57 52 51 52 54 56 59 60 58 52 45 42 44 47 48 49 52 54 54 54 53 50 49 49 48 47 43 40 38 35 33 32 29 26 24 25 24 24 23 19 16 13 10 7 6 5 5 4 4 4 4 4 4
12 11 11 11 10 8 9 9 10 10 9 8 11 14 15 33 45 50 66 83 95 95 99 97 83 89 91 84 92 95 94 97 96 95 86 77 86 88 76 71 66 59 55 55 53 51 49 48 51 54 57 61 61 55 47 41 41 44 43 44 48 52 53 53 53 51 49 48 45 44 43 44 44 43 42 43 39 33 29 27 26 26 24 20 16 13 10 8 6 5 5 4 4 4 4 4 4
16 15 14 14 13 12 12 13 13 12 12 10 11 16 18 37 53 58 78 91 95 95 95 95 87 89 88 84 89 90 91 93 88 87 87 81 79 75 66 62 57 49 46 48 47 48 49 48 51 54 58 60 61 58 50 41 39 44 43 43 46 50 51 52 52 51 49 47 46 46 46 47 50 51 49 48 46 40 35 31 28 26 24 20 17 13 10 8 6 5 5 4 4 4 4 4 4
19 18 18 17 17 16 17 16 17 16 14 14 11 14 17 30 46 60 84 93 94 93 88 86 84 86 85 82 82 86 90 85 78 75 74 73 67 59 56 55 50 44 46 47 41 41 44 46 48 52 61 65 63 61 55 44 38 41 44 47 48 50 52 51 51 50 49 48 48 50 50 50 51 53 52 49 47 43 38 33 30 27 23 20 17 14 10 8 6 6 5 4 4 4 4 4 4
20 20 19 19 20 19 21 20 20 19 17 17 15 14 13 25 37 46 70 88 90 88 85 81 81 86 85 77 75 81 86 80 72 66 62 59 56 51 53 55 48 43 48 48 39 36 37 43 48 51 60 70 70 64 58 50 40 37 41 49 51 52 53 52 51 51 50 49 50 52 53 53 53 54 54 52 47 43 39 35 31 27 24 20 17 14 10 9 7 6 5 4 4 4 4 5 4
21 21 20 20 21 21 22 22 22 21 21 19 19 20 17 25 32 33 48 65 71 71 74 74 74 81 81 75 73 77 79 77 71 63 55 46 43 43 45 48 42 38 41 41 36 36 39 42 49 55 59 68 74 70 61 51 43 37 38 47 53 55 56 53 53 52 51 51 51 53 55 55 57 58 57 56 52 46 40 36 32 28 26 21 16 12 10 9 8 7 5 4 4 4 4 5 5
21 21 20 20 21 22 23 24 24 23 23 22 24 28 25 24 23 28 40 47 57 61 62 65 66 72 77 78 79 78 76 80 77 62 50 43 38 39 41 38 31 27 24 24 28 37 48 50 60 72 74 75 77 74 66 55 45 39 38 45 52 56 58 56 54 54 53 53 53 54 57 58 59 61 62 61 58 51 43 38 34 29 27 23 17 12 10 9 9 7 5 5 4 4 4 5 5
20 20 18 19 20 21 23 25 26 26 25 25 28 28 24 25 20 26 41 46 57 63 62 63 62 60 63 73 74 70 72 77 72 57 51 50 40 36 37 30 24 24 21 20 23 34 48 54 66 84 91 89 84 78 69 60 50 42 41 44 48 53 57 57 56 56 56 56 56 56 58 60 60 60 62 64 63 57 48 41 37 32 28 25 19 12 9 9 8 7 5 5 4 4 5 5 5
18 17 15 17 19 19 22 26 28 28 28 27 27 26 26 28 26 34 47 50 56 62 66 67 64 56 51 57 55 54 65 66 59 56 56 53 42 32 30 24 20 28 39 45 46 46 50 53 60 71 79 82 87 84 73 64 56 49 47 47 48 50 54 56 56 57 58 59 57 57 58 59 60 61 62 64 65 62 54 46 39 35 30 26 21 14 9 8 7 6 5 5 4 5 5 5 5
17 15 14 15 17 19 23 27 29 30 31 29 26 28 31 29 31 44 52 54 60 64 67 70 70 62 57 58 55 53 59 53 47 47 45 44 39 30 24 20 20 30 48 62 62 53 46 49 55 59 61 71 88 92 81 71 64 59 56 55 53 51 52 55 56 57 59 60 59 57 58 59 61 62 63 64 65 64 60 52 43 37 32 27 22 15 10 8 7 6 5 5 4 5 5 6 5
18 15 14 15 17 21 25 27 30 33 31 29 29 31 31 30 40 52 54 54 66 76 74 74 74 68 65 66 63 65 65 56 46 39 36 39 37 30 23 18 22 29 34 42 44 37 35 41 47 51 56 71 93 98 88 79 72 67 62 60 58 55 53 54 55 56 58 60 61 60 60 60 60 61 62 63 64 65 63 57 48 40 33 26 22 17 11 8 7 6 6 5 4 5 5 5 5
19 16 16 16 19 22 26 29 30 32 27 25 30 32 30 33 46 55 55 52 59 76 79 75 73 66 70 71 66 70 68 60 50 42 39 37 34 33 29 19 20 24 21 23 26 26 29 30 27 32 44 63 87 95 91 83 78 74 69 65 63 61 59 57 56 57 59 61 61 61 62 60 59 60 61 62 62 64 63 58 50 42 34 26 22 18 12 8 7 6 6 5 4 5 5 5 6
19 18 19 18 22 26 29 32 30 28 25 25 27 29 30 34 46 53 55 55 53 61 67 72 74 67 69 70 63 65 66 61 51 42 34 31 34 36 32 22 18 19 18 19 19 21 24 25 20 19 33 58 83 92 88 79 76 78 76 71 69 67 65 63 62 62 62 63 64 63 61 58 58 60 59 58 60 62 62 58 49 41 34 25 20 18 12 8 7 7 6 6 5 5 5 5 6
21 20 20 21 24 28 32 34 28 24 25 26 26 26 28 33 42 50 53 57 55 55 56 65 77 73 70 70 61 57 64 64 52 40 30 27 32 33 30 23 18 16 17 17 15 17 20 26 28 24 28 47 67 77 73 66 72 81 80 75 72 69 68 67 66 66 64 63 65 64 60 58 59 58 55 54 56 59 58 55 45 36 32 24 18 16 12 9 7 7 6 6 5 5 6 5 6
24 23 22 23 25 29 33 31 22 21 22 23 25 23 27 33 37 44 51 55 55 55 54 56 66 65 60 62 56 50 58 62 52 38 34 38 34 29 27 21 19 16 13 15 12 14 16 20 25 27 27 28 35 48 58 64 74 82 77 71 69 68 68 67 66 66 64 61 61 62 60 60 61 57 53 51 53 56 55 49 38 31 30 23 16 15 11 9 7 6 6 6 5 5 5 6 7
26 25 24 25 25 26 29 25 20 20 19 19 22 21 26 34 32 36 48 56 55 57 56 52 55 56 53 54 52 48 52 57 53 38 40 63 56 37 30 22 26 25 15 17 16 15 15 15 17 18 22 26 25 30 55 79 83 80 76 69 64 62 64 63 61 61 62 59 57 57 58 60 62 59 52 50 53 56 52 42 31 29 29 21 15 13 10 9 7 6 6 6 5 5 5 6 7
27 26 25 25 24 24 25 22 20 20 19 19 20 21 24 29 30 31 41 55 58 57 57 54 51 51 53 55 52 47 47 54 57 39 34 56 54 40 37 28 32 29 19 24 27 21 15 13 15 15 17 26 32 34 63 94 94 85 80 77 72 64 62 60 58 57 57 56 52 52 55 59 61 59 52 49 53 55 47 34 25 27 26 19 13 11 9 8 7 7 6 6 5 5 5 6 8
29 28 27 26 25 24 23 22 22 21 21 21 20 21 20 22 27 28 35 50 61 62 58 56 52 50 51 52 51 47 44 46 48 36 23 27 28 27 30 25 25 22 19 28 29 23 18 16 17 19 16 19 29 37 62 90 95 94 89 83 83 77 70 63 56 54 52 51 48 48 51 55 60 60 56 54 57 56 43 28 24 27 22 17 14 11 9 7 7 7 6 6 6 5 5 6 10
33 32 30 28 27 27 27 27 27 27 26 24 21 21 18 20 23 25 31 42 55 65 64 61 56 53 52 51 52 46 35 28 26 23 17 16 16 17 18 17 17 16 18 22 20 18 19 20 18 20 19 18 23 27 49 75 82 91 95 88 90 93 88 76 62 52 48 47 46 47 49 53 62 65 61 62 67 63 44 28 28 27 22 19 18 15 10 7 7 8 7 6 6 5 6 7 11
39 38 37 34 32 32 32 32 30 29 28 24 21 19 19 21 21 23 30 37 50 63 66 66 63 59 55 52 51 43 26 17 16 15 13 12 11 11 12 12 13 13 15 15 14 14 15 17 17 18 18 18 22 20 38 73 84 85 85 82 88 98 100 93 75 56 48 47 46 48 52 57 65 68 66 67 74 70 50 38 38 33 28 26 24 21 15 9 8 8 8 7 6 6 6 8 10
43 42 40 36 34 35 35 35 34 32 29 27 23 19 20 23 23 24 28 36 48 58 61 60 61 64 62 59 57 48 33 20 14 12 10 10 9 10 10 10 10 10 11 12 13 13 13 14 14 16 16 16 22 21 24 55 80 80 70 68 76 87 98 100 87 68 52 48 51 53 56 61 66 69 70 72 78 76 62 55 55 48 41 35 28 25 19 12 9 8 8 7 7 7 7 8 9
39 36 33 29 31 35 35 37 36 32 30 28 24 20 18 18 19 22 24 28 32 40 51 55 57 63 66 66 63 56 46 32 17 11 10 10 8 8 9 8 8 8 9 10 11 12 13 13 13 14 16 14 16 22 22 35 60 72 74 78 74 73 87 99 96 80 58 50 54 55 56 59 62 69 74 78 82 82 76 71 69 62 53 44 33 27 23 15 11 9 9 8 7 8 8 8 8
26 24 22 21 22 24 23 24 22 19 19 18 17 15 12 12 13 15 18 20 19 19 31 44 52 58 61 62 62 60 51 34 17 10 11 11 9 8 8 8 7 7 7 8 8 10 11 12 13 11 12 14 11 13 18 28 50 66 80 91 86 76 78 90 99 92 71 57 55 53 53 54 58 68 76 80 84 85 85 82 79 73 63 53 40 30 26 18 12 10 9 9 9 9 10 9 9
16 16 16 15 12 13 13 13 12 14 17 16 14 12 10 9 7 8 9 12 14 14 17 28 37 42 46 45 46 46 36 22 12 10 11 10 9 8 8 8 8 7 7 7 7 8 9 11 20 20 11 12 12 10 11 20 42 60 77 91 91 89 88 87 93 95 83 68 59 55 52 51 54 64 73 78 82 85 88 87 85 83 74 60 45 32 27 20 13 11 11 11 10 11 11 10 10
17 15 15 13 11 16 18 18 19 24 25 21 18 18 16 13 12 15 13 11 12 13 13 17 22 27 30 27 23 22 18 15 13 11 10 10 10 9 8 8 8 8 7 7 7 7 7 8 27 34 17 10 11 11 11 14 27 45 70 92 92 93 99 94 88 86 85 77 66 61 58 56 57 62 69 75 82 86 88 88 87 88 81 65 48 34 26 22 16 14 14 14 13 13 13 12 12
17 15 13 14 19 24 24 27 30 29 27 26 28 30 28 25 29 33 31 31 30 27 24 22 24 24 22 17 12 11 12 14 16 13 11 11 12 11 9 8 8 8 8 7 7 7 7 6 16 23 14 11 11 10 12 12 20 33 53 81 92 94 97 95 91 83 79 77 71 66 65 65 66 68 70 73 79 85 88 89 89 87 79 64 49 35 26 22 19 18 17 17 17 16 14 13 13
12 13 13 12 20 28 30 32 32 29 29 35 44 42 34 29 33 41 47 54 56 52 47 43 41 33 23 17 12 9 10 12 14 15 14 13 14 13 11 9 8 8 8 8 7 6 8 7 8 10 9 10 10 12 14 12 21 34 48 69 88 98 96 91 94 89 75 71 69 67 68 70 73 76 79 79 78 82 88 91 89 84 75 61 47 35 26 21 20 21 20 19 18 17 15 13 13
11 11 15 13 19 32 37 32 29 33 38 45 55 46 29 22 28 45 60 66 66 61 52 43 40 33 25 22 20 16 15 13 13 13 14 14 14 15 13 11 9 9 8 7 8 7 7 8 8 8 8 8 10 13 14 13 18 29 42 59 80 96 99 93 94 94 82 71 66 65 66 71 76 80 85 89 86 83 86 91 89 78 68 59 46 33 25 22 23 21 19 18 16 15 14 13 12
18 20 24 28 34 39 40 36 34 41 46 50 57 43 22 21 37 59 71 67 60 55 46 35 28 24 22 21 20 19 18 19 19 18 17 16 14 13 13 12 11 10 10 9 9 9 8 8 8 8 7 7 8 10 12 12 12 18 27 45 73 92 99 100 94 93 92 82 70 63 63 68 74 81 89 95 95 91 88 89 86 71 61 59 46 32 25 24 23 19 17 16 13 13 12 12 11
29 36 40 49 55 45 43 51 50 51 53 51 52 44 30 32 47 60 62 54 47 41 36 30 25 26 24 17 14 18 21 20 18 17 16 15 14 12 11 11 11 10 11 13 11 10 9 8 9 8 8 7 7 8 9 10 11 16 19 31 62 85 94 100 94 91 95 95 86 73 67 67 71 80 90 97 99 99 96 90 82 66 56 59 49 31 26 24 20 19 19 17 12 10 10 10 11
44 52 54 62 65 52 48 57 57 57 57 51 48 52 49 39 38 41 39 37 33 27 23 23 25 28 25 18 20 27 30 30 28 26 23 20 17 15 15 14 13 12 12 13 15 15 12 10 9 9 8 8 7 7 8 10 10 13 17 23 44 66 79 91 97 95 94 95 97 91 82 76 74 79 87 94 94 94 96 93 88 76 64 63 53 31 23 22 20 21 21 19 14 11 10 10 10
40 52 58 63 63 54 48 50 56 54 49 49 45 50 56 43 29 27 28 31 31 24 20 23 27 29 28 27 31 37 48 56 53 49 44 35 27 23 21 22 20 17 13 12 15 19 18 14 11 9 8 7 7 8 7 8 8 13 21 22 28 39 50 67 85 96 98 95 95 94 93 92 86 85 87 87 85 85 85 86 91 91 82 72 52 31 25 24 22 22 19 17 15 12 13 11 10
20 37 53 63 63 56 47 45 53 52 48 54 51 46 46 34 25 25 25 31 36 32 28 29 34 41 44 43 41 45 62 72 56 42 40 35 33 32 29 29 29 27 23 18 17 18 17 15 13 10 8 7 7 7 6 6 7 10 22 38 46 46 45 56 70 82 92 96 97 96 96 99 97 95 94 86 82 83 76 74 82 91 93 83 55 31 27 27 25 24 19 15 13 11 12 12 13
13 21 34 43 40 37 40 42 49 53 53 60 63 61 52 34 32 37 33 33 36 36 36 36 40 49 56 56 54 51 62 76 57 30 26 27 28 29 26 26 27 29 27 24 23 21 18 17 15 12 8 7 6 6 6 6 6 10 31 63 79 72 60 56 56 63 74 79 89 98 99 100 99 98 99 92 87 85 75 70 75 83 89 87 68 41 28 30 30 26 21 16 12 10 11 13 14
21 23 30 35 30 29 40 46 51 55 56 59 63 69 69 61 61 65 62 56 51 49 49 48 47 53 60 62 64 64 70 86 72 40 27 25 23 22 22 23 24 25 25 23 20 18 20 18 17 15 10 7 7 6 6 6 8 16 32 49 58 60 56 52 48 49 60 66 72 85 94 98 100 99 100 99 95 90 81 73 72 76 84 89 80 54 34 34 35 30 24 17 13 13 13 13 14
42 49 53 60 60 57 60 64 72 77 75 71 67 69 74 73 75 78 78 73 69 67 65 65 67 72 78 75 78 85 88 90 81 61 48 40 34 29 28 30 31 31 33 36 29 20 19 17 16 17 12 9 6 5 11 15 16 20 26 32 36 42 51 63 68 54 49 58 61 68 80 89 97 101 100 100 98 94 88 80 74 75 84 89 79 57 41 39 39 35 29 21 16 15 14 14 16
56 62 59 60 60 59 61 63 68 75 80 78 75 78 75 68 70 75 74 73 78 84 87 87 85 86 88 81 80 87 92 92 87 79 71 62 54 45 37 33 33 33 37 47 44 31 25 21 18 17 13 11 6 6 15 20 20 21 27 39 46 48 52 66 81 69 47 46 49 51 65 81 92 99 100 100 100 97 92 86 80 77 78 78 69 54 46 45 44 40 34 27 20 17 16 15 17
61 62 55 52 49 51 56 57 58 60 68 68 67 74 71 64 68 69 66 71 77 80 86 92 92 94 94 87 85 89 91 89 80 72 66 61 57 54 48 41 37 36 38 50 55 43 31 26 23 19 14 12 8 7 10 11 14 17 21 42 66 77 78 78 88 86 70 66 65 52 51 70 87 96 100 100 100 100 96 91 86 82 78 69 60 53 50 50 50 47 43 37 29 23 20 18 18
56 55 51 51 49 54 58 59 61 63 71 71 66 71 72 73 76 68 60 62 66 66 69 77 86 90 88 85 84 82 76 67 60 56 53 50 48 46 47 44 42 40 39 49 64 61 44 32 27 21 14 11 10 9 8 6 8 10 11 29 61 80 85 87 94 97 90 89 93 76 61 67 80 93 100 99 99 101 100 96 88 84 81 71 58 53 54 56 55 53 50 45 39 32 27 24 22
49 47 46 43 45 59 65 69 73 73 81 85 80 78 77 75 71 62 54 51 57 64 62 61 64 62 60 62 64 61 58 54 50 49 47 44 40 36 35 35 34 34 33 36 50 59 53 43 34 25 16 11 10 9 10 8 7 8 7 13 34 53 65 76 81 85 87 87 88 82 77 79 80 86 97 100 99 100 100 100 91 83 80 73 61 54 57 59 57 56 55 52 47 41 36 33 31
47 42 40 39 48 63 66 72 81 78 81 88 87 86 81 70 60 55 53 49 52 58 54 51 51 50 53 55 54 52 51 50 47 45 43 40 39 36 34 32 28 25 24 24 29 38 42 40 34 26 18 11 9 9 9 10 7 7 9 12 24 36 49 63 67 68 73 78 81 73 68 77 82 83 89 96 99 100 100 101 96 88 82 75 65 57 57 59 59 57 56 55 53 48 44 41 39
40 38 41 43 50 58 55 57 64 65 74 84 82 79 74 65 57 55 56 55 57 57 54 55 57 58 58 53 47 44 43 44 44 43 43 41 40 39 36 35 32 27 23 20 20 24 28 30 27 22 17 13 10 8 7 9 9 7 7 10 16 22 32 48 58 63 66 71 79 77 65 66 77 84 88 92 97 100 100 101 100 94 85 78 70 61 58 59 60 58 56 55 56 54 50 46 45
42 42 49 48 44 47 48 47 53 62 72 77 73 65 60 56 53 55 58 60 63 61 58 59 60 57 49 38 31 29 30 33 34 34 36 39 41 40 37 35 35 34 30 25 22 22 23 23 22 20 18 15 12 10 7 7 8 8 7 6 7 10 20 32 41 50 60 66 72 80 81 76 75 82 87 91 97 101 100 100 101 97 90 84 76 66 60 59 59 58 56 55 57 58 54 51 49
50 48 47 44 40 41 45 45 51 62 66 63 63 61 57 54 52 54 56 59 63 60 59 62 61 55 43 32 26 21 19 18 19 21 24 28 34 36 38 37 36 35 33 32 29 27 27 25 20 18 19 18 15 12 9 7 7 7 7 7 6 6 10 19 28 34 45 61 70 72 78 80 77 78 84 92 99 100 100 101 101 99 94 87 80 70 63 60 59 58 55 54 56 58 57 54 51
43 41 37 40 43 43 47 50 49 54 56 52 50 53 58 58 53 46 44 52 60 57 59 65 64 57 47 39 32 24 18 13 11 12 12 15 20 25 31 34 34 33 33 35 35 33 32 32 26 20 18 19 19 16 13 9 7 7 7 6 6 6 6 9 19 26 33 52 66 66 66 69 71 76 83 93 100 100 99 100 100 100 96 88 84 82 77 69 62 56 54 53 54 57 59 55 50
33 35 35 42 50 48 49 50 45 43 45 47 49 53 57 55 46 38 36 45 54 56 59 62 59 52 44 36 27 20 17 15 12 11 10 10 11 13 18 25 28 30 33 35 36 35 32 33 34 29 21 18 18 18 18 14 9 7 7 7 6 6 7 6 9 18 27 40 54 59 59 60 61 67 80 89 95 98 99 99 100 100 97 92 88 86 86 80 69 60 55 55 56 56 58 58 52
34 38 39 43 55 59 54 48 46 42 38 42 50 53 51 45 41 39 36 36 45 54 56 52 46 42 37 30 25 21 19 17 16 14 11 8 9 10 11 14 19 24 31 34 35 36 33 31 34 35 30 24 19 18 19 19 16 11 7 7 7 5 6 7 7 8 15 28 42 50 54 57 55 53 65 81 89 92 93 93 98 101 100 97 92 85 82 81 76 67 59 57 58 56 56 58 56
34 35 36 40 50 56 50 46 48 48 44 46 51 53 51 44 39 37 33 31 38 48 47 42 39 37 34 32 30 28 24 20 18 17 13 8 8 9 9 9 11 15 24 31 34 36 36 33 32 36 38 35 28 22 19 21 21 17 12 7 7 7 5 6 7 6 7 13 29 45 53 57 54 43 45 66 85 90 87 84 88 94 97 96 96 94 90 90 89 79 67 60 59 58 57 57 57
35 39 41 42 48 50 48 49 52 52 50 51 54 54 48 39 35 36 36 35 39 41 39 39 39 34 29 27 28 28 25 20 18 16 12 8 7 8 8 8 8 9 15 26 35 36 34 32 30 31 37 42 41 33 24 21 22 22 19 12 7 7 7 6 6 7 7 5 15 36 48 51 50 41 34 43 63 79 82 80 79 79 77 78 87 98 99 97 99 94 80 67 61 58 57 56 55
47 59 61 55 52 50 47 45 47 48 47 45 48 49 41 34 37 40 39 40 40 40 38 39 38 33 28 26 26 28 25 20 18 14 10 8 6 7 7 6 8 8 11 23 34 34 27 22 21 21 25 34 44 46 37 25 21 23 24 19 12 8 7 7 5 5 6 5 8 22 38 46 44 39 34 31 38 52 63 69 70 66 62 59 67 87 97 95 97 98 89 77 70 64 58 56 56
53 63 63 55 51 47 42 41 44 47 46 42 41 42 39 36 36 35 34 36 35 33 33 35 37 34 31 30 28 27 24 19 15 11 8 7 6 6 6 7 8 7 12 25 33 28 18 13 13 14 15 19 30 43 46 34 23 22 25 25 20 12 9 9 7 6 6 6 7 12 25 38 40 34 33 33 32 35 41 51 58 58 56 54 52 62 76 80 84 93 92 83 81 78 65 58 57
60 68 62 53 50 48 47 49 52 53 53 50 46 43 41 38 35 33 34 35 32 30 33 39 41 36 32 29 25 22 19 14 10 8 7 7 6 6 6 7 8 7 16 30 32 21 13 12 13 15 17 18 18 25 34 35 27 20 21 25 26 20 13 9 8 7 6 6 7 8 13 25 33 31 28 32 37 36 37 42 48 48 48 52 51 50 59 67 75 92 98 85 82 87 79 67 62
67 74 71 69 69 67 67 66 65 63 59 57 53 47 44 40 37 37 40 41 38 36 39 42 41 36 29 23 18 15 11 8 8 7 6 6 6 6 7 7 7 13 27 35 29 18 12 14 16 18 20 21 20 23 27 27 23 19 17 20 26 28 21 13 11 9 7 7 7 7 8 13 22 27 26 30 39 41 38 39 46 58 66 66 61 53 52 55 63 84 99 88 81 89 89 79 72
Wind_Speed
22 23 24 24 25 26 27 26 28 28 27 26 24 24 22 22 21 19 16 16 15 14 18 21 22 23 24 25 24 27 26 25 24 24 26 22 18 18 18 18 14 12 10 9 8 8 8 8 9 9 10 11 11 10 11 12 12 12 11 10 9 9 9 9 9 9 9 8 8 8 7 7 7 7 7 8 9 10 11 12 13 14 14 14 14 13 12 10 10 9 9 9 9 8 8 8 8
20 21 21 21 22 24 24 23 24 25 23 21 20 20 18 17 17 14 14 16 17 15 17 20 23 22 21 22 20 21 22 22 20 19 22 20 17 18 19 15 9 9 10 10 10 9 9 10 10 10 10 11 12 12 11 12 12 12 12 11 10 9 9 9 10 10 10 10 9 8 8 8 8 8 8 8 9 10 11 12 13 14 14 15 15 14 12 11 10 9 9 9 9 9 8 8 8
17 17 17 18 19 20 21 19 20 20 18 15 14 14 13 13 12 11 14 18 18 16 16 17 23 24 21 19 17 18 19 19 17 16 17 16 15 13 13 9 6 7 9 9 10 10 10 11 12 11 11 12 13 13 13 13 13 12 12 11 11 10 10 10 10 11 11 11 10 9 9 9 9 9 9 9 9 10 11 11 12 13 14 15 15 14 12 11 10 9 9 9 9 9 8 8 8
15 15 15 15 16 17 18 15 13 12 11 9 8 9 10 12 12 14 17 18 16 14 17 20 25 28 24 18 15 16 17 17 15 15 15 15 15 13 11 7 5 7 9 9 10 10 10 11 11 11 11 12 13 14 14 14 14 14 13 12 12 11 11 10 10 10 11 11 11 10 9 9 9 9 10 10 10 10 10 11 11 12 14 15 15 14 13 11 10 9 9 9 9 9 9 8 8
13 12 12 13 14 14 14 10 7 5 5 5 4 8 11 13 15 18 20 16 10 11 16 20 22 23 21 16 12 12 13 14 12 13 15 16 16 14 12 9 6 7 8 9 9 10 11 11 11 11 11 12 14 15 15 15 15 15 14 13 13 12 11 11 11 10 10 10 10 10 9 9 9 9 10 10 10 11 10 10 10 12 14 15 15 14 13 11 9 9 9 9 9 9 9 8 8
12 12 11 13 14 13 12 8 5 2 4 5 5 9 12 12 16 20 21 15 5 6 11 15 18 19 19 17 15 14 14 13 11 13 16 17 13 9 10 9 8 9 9 9 10 11 12 13 13 12 13 13 15 16 17 16 16 16 15 14 13 13 12 11 11 10 10 9 9 9 9 9 9 9 10 11 11 11 11 10 10 11 13 15 15 15 13 11 9 9 9 9 9 9 9 9 8
13 14 13 14 15 13 11 7 4 3 5 6 6 9 10 11 16 18 18 15 7 4 7 12 18 18 17 18 16 17 16 14 13 14 18 17 12 8 9 11 10 11 12 12 12 12 13 14 14 15 15 15 16 17 18 18 17 17 16 16 15 14 13 12 11 11 10 10 9 10 9 9 9 10 11 12 12 12 11 11 11 11 12 14 15 15 14 11 9 9 9 9 9 9 9 9 8
15 15 15 15 15 14 11 7 5 5 7 7 7 9 9 12 16 15 16 16 9 7 9 11 17 18 16 17 15 15 13 12 12 14 16 17 17 15 14 15 15 14 13 14 14 14 14 14 14 15 15 16 17 18 19 19 18 18 17 16 15 14 14 13 11 11 10 10 10 10 10 10 10 11 12 12 13 13 13 12 12 12 12 13 14 15 14 11 9 8 9 9 10 10 9 9 8
16 17 17 16 16 14 11 8 7 7 8 9 8 10 10 11 13 11 13 15 10 8 9 12 19 21 18 18 16 14 12 11 12 13 15 17 19 18 16 17 17 15 12 12 14 15 15 15 15 15 15 17 18 19 20 21 20 19 18 17 16 15 14 13 12 12 11 11 11 11 11 11 10 11 11 12 13 14 14 13 13 13 13 14 14 15 14 12 9 8 9 9 10 10 9 9 8
18 19 20 19 18 15 12 10 9 8 10 10 9 10 11 11 12 10 10 12 11 10 8 14 21 22 21 21 20 18 16 14 16 16 17 17 18 16 14 14 15 14 11 10 11 13 15 16 16 16 16 16 19 20 21 22 22 21 20 18 16 15 15 14 13 12 12 11 11 12 12 11 10 10 11 12 13 14 14 14 13 13 14 14 14 15 14 12 9 8 9 10 10 10 10 9 8
19 21 23 21 19 17 14 12 10 10 11 10 8 9 11 13 14 12 11 10 7 11 13 19 23 22 22 22 22 22 19 18 19 20 21 20 19 17 14 13 14 15 13 12 12 12 14 16 17 17 17 17 19 21 23 23 23 23 22 20 18 16 15 15 14 14 13 12 12 12 12 12 11 11 12 13 14 14 15 14 13 14 14 15 15 15 14 12 9 8 9 10 10 10 10 9 8
22 22 25 24 21 20 18 15 12 12 11 8 9 12 15 16 17 14 12 10 7 12 17 22 25 24 24 25 25 21 20 20 21 23 25 23 20 19 15 13 14 16 16 15 14 13 13 13 14 14 15 17 19 23 25 25 24 23 23 22 20 18 17 17 16 15 14 13 13 12 13 12 12 12 13 14 14 15 15 15 14 14 14 15 15 16 15 12 9 9 9 9 10 10 10 10 9
23 24 26 25 24 23 21 17 15 14 13 12 15 18 19 20 20 18 13 10 13 17 18 23 27 29 29 30 30 24 21 22 23 26 26 23 21 19 17 14 12 13 15 14 14 15 15 14 12 10 11 15 19 23 25 26 25 24 23 23 22 20 19 18 17 16 15 14 13 12 12 12 12 13 13 14 15 16 16 16 15 15 15 15 15 16 16 13 10 9 9 9 10 10 10 10 9
24 25 26 26 25 24 22 19 17 16 15 18 20 21 20 20 21 19 14 12 15 19 22 26 29 31 31 31 33 30 25 24 26 28 27 25 24 23 20 15 11 11 12 11 11 13 16 17 16 13 14 16 20 23 24 25 25 24 23 23 23 22 21 20 19 17 16 15 14 13 12 12 12 12 13 14 15 16 17 16 16 15 15 15 15 16 16 14 10 9 9 9 10 10 10 10 10
25 26 26 26 25 24 21 19 18 16 17 22 23 22 20 20 22 20 17 14 14 19 25 29 32 32 31 32 33 32 30 30 30 30 29 28 28 27 22 14 10 11 12 12 12 14 17 18 18 17 17 18 21 24 24 23 23 23 23 23 23 23 22 21 20 19 17 16 15 14 13 12 12 12 13 14 16 17 17 17 17 16 16 15 15 17 17 14 11 10 9 9 10 11 11 11 10
26 27 27 26 24 22 20 19 18 18 21 25 24 22 21 22 24 23 20 17 15 21 25 28 33 33 32 32 32 33 33 34 33 31 30 30 30 29 22 16 12 11 12 15 17 17 18 19 19 18 19 18 19 24 24 22 22 22 23 23 24 24 23 22 21 20 18 17 16 15 14 13 12 12 13 15 16 17 18 18 17 17 17 16 15 17 17 15 12 10 9 10 11 11 11 10 10
27 27 27 25 23 20 18 19 19 21 25 27 26 24 24 25 26 25 25 22 19 24 27 29 32 34 34 32 32 34 35 35 33 32 31 31 31 29 24 20 17 15 15 17 17 17 18 19 21 21 21 19 19 23 24 23 23 23 23 24 25 25 24 23 22 21 20 18 17 16 15 14 13 13 14 15 17 18 19 19 18 18 17 17 16 17 17 16 13 10 9 11 11 11 10 10 10
27 27 26 24 21 19 17 19 22 25 28 28 28 26 26 28 28 28 28 25 24 25 28 31 32 33 35 35 34 36 37 37 35 34 33 33 32 30 28 24 21 20 18 18 18 18 18 18 21 22 23 21 22 25 25 25 25 26 26 25 25 26 25 24 23 22 21 19 18 17 16 16 15 14 14 15 16 17 19 19 19 19 18 18 17 17 17 16 13 11 10 11 11 11 11 10 10
26 26 26 24 21 18 19 22 25 28 28 28 29 28 28 30 31 31 30 28 28 27 28 31 31 31 33 35 37 38 39 39 37 36 34 36 36 34 31 27 24 22 19 19 20 20 20 19 20 22 24 24 24 26 28 27 25 26 28 27 26 26 26 25 24 23 22 20 19 18 17 17 16 15 14 15 15 17 19 20 20 20 19 18 17 17 17 16 14 11 11 12 11 11 11 11 10
26 26 26 24 22 22 24 26 29 30 29 29 30 30 29 31 32 33 33 32 31 30 30 32 32 33 37 38 40 40 42 42 39 36 37 41 43 40 34 29 25 23 22 22 23 23 22 23 23 22 23 24 26 26 26 27 25 25 27 27 27 27 26 26 25 24 23 22 20 19 18 17 17 15 14 14 15 17 19 20 20 20 19 18 17 17 17 16 14 12 12 12 11 11 11 11 11
27 26 25 25 25 26 27 28 30 31 31 32 33 31 30 31 31 33 35 34 33 33 34 36 36 37 41 43 43 41 41 43 41 40 40 38 39 37 33 28 25 23 23 23 24 25 24 26 27 25 24 23 24 24 23 24 24 25 26 28 29 29 28 28 27 25 24 23 21 20 19 18 17 15 14 14 16 17 19 20 20 20 19 18 17 17 17 16 14 12 12 12 11 12 12 11 11
27 26 26 26 27 28 30 30 31 32 32 33 33 31 31 31 31 32 35 34 33 35 38 40 40 41 42 45 45 43 41 43 45 46 44 39 38 36 30 26 25 23 23 23 23 25 26 27 28 28 27 23 22 23 24 24 25 27 28 28 30 30 30 30 29 27 26 24 22 20 20 18 17 15 14 15 16 18 20 21 20 20 18 17 16 16 16 15 14 13 13 13 12 12 12 11 11
28 28 28 28 27 28 29 29 31 32 32 32 31 31 31 31 32 32 35 36 35 35 38 41 43 43 44 45 44 42 43 45 48 48 46 43 42 38 33 30 29 28 26 26 26 27 29 29 30 28 28 27 24 25 27 27 28 29 30 30 29 30 31 32 31 30 28 26 24 22 21 19 17 16 15 16 17 19 20 21 20 19 18 16 15 15 15 14 13 13 13 13 12 12 12 11 11
29 29 29 29 27 27 29 30 31 32 32 31 29 30 30 31 33 32 34 37 37 35 36 39 41 42 42 42 42 42 45 47 48 47 45 42 40 38 35 32 31 29 28 28 29 30 29 30 31 30 29 29 27 28 30 32 32 31 32 32 31 31 32 33 34 33 31 28 25 23 22 20 18 17 17 17 18 20 20 20 19 18 16 15 14 14 14 14 13 13 13 14 13 12 12 12 11
29 29 29 27 25 26 28 29 30 29 29 28 27 28 28 30 32 31 32 35 38 38 36 37 39 40 41 42 42 45 47 48 48 46 43 41 39 37 34 32 31 29 29 30 31 32 32 30 29 30 30 30 29 31 32 33 33 34 34 34 32 32 32 34 35 35 33 30 27 25 23 21 19 18 19 19 19 20 21 20 18 17 16 14 14 14 14 14 13 13 14 14 14 13 12 12 12
27 27 26 24 21 22 22 23 24 23 24 27 28 27 27 30 31 30 32 34 37 40 41 41 40 40 42 43 44 46 48 48 48 47 44 41 39 36 35 34 32 30 31 32 33 34 35 32 29 29 31 30 29 31 32 34 35 35 36 36 35 34 34 35 35 35 34 32 28 26 24 22 19 19 21 21 20 20 21 21 19 17 16 15 15 14 14 14 13 13 14 15 14 13 13 13 12
25 23 21 18 16 17 19 20 21 21 22 26 29 28 28 29 30 31 32 34 37 39 42 45 45 44 45 46 48 49 49 48 48 47 46 44 40 37 36 35 33 32 32 32 33 35 36 35 32 32 33 31 31 31 32 35 37 37 37 36 37 39 39 36 34 34 35 33 30 27 26 23 20 20 22 22 21 21 22 22 21 18 17 16 16 15 15 14 14 14 14 15 15 14 14 13 12
20 19 18 17 18 20 21 20 22 23 22 23 26 28 29 28 28 30 32 34 36 38 41 45 47 48 48 49 51 52 51 49 47 46 46 45 41 38 36 36 34 33 33 32 33 34 36 36 35 36 35 32 32 32 32 36 38 38 38 37 39 42 44 42 36 33 33 33 31 29 27 25 22 21 21 21 21 22 23 24 23 20 18 18 17 17 16 15 15 15 15 16 16 15 15 14 13
17 17 17 18 19 19 17 17 17 17 16 17 19 21 23 25 25 27 29 32 36 38 39 41 43 45 46 47 48 49 49 46 44 45 45 44 42 40 38 38 37 35 35 34 34 36 37 36 35 37 36 32 33 33 34 36 37 38 38 38 39 40 44 46 41 35 33 33 32 30 28 26 24 23 21 21 22 23 24 25 24 22 20 19 19 18 17 16 16 16 16 16 16 16 16 15 14
14 15 15 15 14 11 10 9 9 9 9 9 10 11 14 16 17 18 20 24 29 32 34 37 39 40 41 42 43 44 43 40 40 42 43 42 42 42 41 41 40 38 37 36 36 37 38 37 34 34 35 33 34 34 34 35 36 37 36 35 38 38 40 46 46 39 36 34 32 30 28 27 26 25 24 23 23 24 26 26 25 23 21 20 19 19 18 18 17 17 16 16 16 16 17 16 14
15 15 15 13 9 7 7 6 8 8 3 3 4 6 7 6 7 8 8 11 15 19 23 29 32 34 37 40 42 43 42 40 39 41 42 43 44 45 44 43 43 41 39 37 38 39 39 38 35 33 33 33 35 35 34 34 35 35 34 33 35 39 38 43 48 45 39 36 34 31 28 27 27 26 26 25 24 25 27 27 24 23 21 20 20 19 19 19 18 17 16 16 16 17 17 16 14
17 16 15 14 10 8 9 8 9 5 5 5 6 5 7 7 7 5 2 5 8 13 18 23 26 29 33 37 39 40 41 41 41 42 43 43 44 45 46 45 45 44 41 39 41 41 40 40 37 34 33 34 35 35 34 34 34 34 33 32 33 38 39 39 43 46 42 38 36 33 30 28 27 27 27 27 26 26 27 28 25 22 21 20 20 21 20 20 19 17 16 16 17 18 17 15 13
14 14 13 13 11 9 10 9 8 8 8 6 8 8 9 8 8 5 2 9 13 14 18 22 24 27 29 30 33 33 35 37 37 39 42 43 44 45 46 47 46 45 43 42 42 42 41 41 39 35 34 35 35 34 34 34 34 34 34 31 30 34 37 37 38 40 41 40 38 35 33 30 29 28 29 31 30 28 28 28 25 22 21 20 21 22 21 19 18 16 16 15 16 17 15 15 14
13 13 12 11 8 8 8 7 6 5 4 6 10 10 8 7 7 8 7 14 17 17 19 21 23 24 23 22 23 24 26 28 28 30 33 38 41 43 45 46 45 44 42 42 43 43 42 42 40 36 35 35 36 34 34 34 34 34 35 33 30 29 33 36 36 37 37 38 37 36 34 32 31 30 32 34 34 33 30 28 25 22 21 22 22 22 21 19 17 16 16 15 15 15 15 15 15
12 12 12 10 8 8 8 5 3 2 3 7 12 12 9 9 11 12 14 19 21 21 21 22 22 21 20 18 17 18 19 20 21 21 23 26 30 35 38 40 40 39 38 37 39 41 42 42 40 37 36 36 36 34 34 34 34 34 34 34 30 26 28 32 34 36 36 36 35 35 35 34 33 33 34 35 36 39 35 29 25 22 22 23 23 23 21 19 17 16 16 15 15 15 15 15 16
11 13 13 13 12 11 10 9 7 7 9 10 12 15 15 14 14 15 18 21 23 23 21 21 21 20 18 17 16 18 19 19 18 19 20 20 21 23 25 27 28 29 31 32 34 37 39 40 39 37 36 37 37 35 34 34 34 35 34 35 33 29 27 29 32 33 34 36 35 35 36 36 35 35 37 37 38 39 36 31 28 24 24 25 24 24 22 20 18 17 17 16 16 16 16 15 15
11 14 15 16 17 15 13 14 12 11 12 13 14 18 19 18 19 20 20 22 24 24 23 21 20 20 20 20 21 20 20 20 20 20 21 20 20 19 19 19 20 22 25 29 33 34 35 37 37 36 36 38 38 35 34 34 35 35 34 35 38 37 33 30 32 32 31 33 35 35 37 38 38 38 38 37 37 35 33 32 31 29 27 28 27 26 25 22 20 18 18 18 18 18 17 16 15
10 13 14 15 18 19 17 15 14 13 12 14 15 17 21 21 21 23 23 23 25 25 24 23 23 24 25 26 26 26 24 23 21 21 21 21 20 20 20 19 19 20 22 24 28 30 31 32 33 35 36 38 39 37 35 35 35 35 34 34 35 37 35 31 30 32 33 33 34 35 36 37 39 39 38 36 36 34 33 34 33 31 29 28 29 29 27 24 22 21 21 20 20 18 17 17 17
8 11 13 15 17 20 20 17 16 16 15 18 17 16 20 21 20 24 26 25 27 28 26 26 26 27 29 31 31 31 29 27 26 24 22 22 21 21 21 21 21 21 22 23 24 26 27 28 29 31 34 38 40 38 37 36 36 36 33 30 30 31 33 33 30 31 34 35 35 36 36 38 39 40 38 36 37 36 34 36 36 33 30 28 29 30 29 26 25 24 23 22 21 19 17 18 18
6 8 10 13 14 17 20 20 20 19 19 21 20 19 21 22 21 24 27 27 28 29 29 28 28 28 30 32 32 32 31 31 30 27 25 24 24 24 23 23 22 23 25 26 26 25 26 27 27 28 32 37 40 40 39 38 38 37 34 32 33 33 34 36 35 33 33 35 37 38 39 40 40 42 42 40 40 38 36 38 38 36 34 31 30 31 31 28 26 25 24 23 22 20 18 18 18
6 7 7 9 9 10 13 17 18 18 19 22 22 22 24 25 26 26 27 26 25 26 27 28 28 28 26 26 27 27 27 27 27 26 26 27 26 26 25 24 23 22 24 28 29 27 27 27 28 28 30 36 40 41 41 41 39 37 36 37 39 37 35 35 37 36 35 36 37 37 40 41 40 40 42 43 41 39 38 38 39 38 37 34 32 32 31 29 27 26 25 24 22 21 20 19 19
7 8 7 7 6 6 9 12 14 14 16 18 19 22 25 25 25 26 26 24 23 23 25 27 28 27 25 25 25 24 23 22 23 24 26 28 29 29 28 27 25 23 22 26 29 29 27 27 26 27 30 34 39 42 42 41 39 37 36 37 39 39 38 37 38 37 37 38 39 39 39 40 40 37 37 41 42 40 39 38 39 39 38 37 33 30 30 29 27 26 25 24 22 21 20 19 19
8 8 6 5 3 5 8 10 11 11 14 17 18 21 23 22 22 24 22 18 15 13 12 16 19 20 21 22 22 23 22 21 23 25 27 29 30 32 32 32 30 27 25 26 29 30 29 27 26 27 29 33 38 42 43 42 40 39 37 36 36 37 38 37 36 38 37 36 37 41 41 39 39 36 34 37 41 43 41 40 41 41 40 38 35 32 31 30 29 28 27 25 23 22 20 20 19
8 6 4 4 3 4 5 7 10 10 11 14 16 18 19 18 18 18 14 10 8 6 5 6 9 13 15 15 16 18 19 20 22 23 25 26 28 29 31 33 33 32 29 28 30 31 30 28 26 27 29 32 36 39 42 43 43 42 40 40 38 37 37 35 34 35 36 35 35 38 39 38 37 35 33 34 39 43 43 42 42 42 40 38 36 33 32 31 29 28 28 27 25 23 22 20 18
7 5 5 6 6 5 6 8 9 9 9 10 12 14 12 9 9 9 7 6 6 5 6 6 8 10 10 11 13 14 16 18 19 20 21 23 25 26 27 28 30 32 32 32 32 34 34 32 30 29 30 31 35 38 39 42 44 43 42 42 41 40 40 38 36 36 35 36 38 38 36 36 37 36 34 33 37 43 44 43 43 42 41 39 36 34 33 32 30 28 29 29 27 25 23 20 18
7 6 6 6 6 7 8 8 6 6 7 7 9 10 6 3 4 4 4 4 4 6 7 7 7 7 8 9 12 13 15 17 18 19 20 21 23 25 26 26 27 27 29 31 32 33 36 37 35 32 31 32 34 36 38 40 43 44 42 42 42 43 43 40 38 38 37 36 38 41 40 37 35 36 37 35 37 43 46 44 43 42 42 41 38 36 35 32 30 29 30 29 28 27 24 22 20
9 7 7 7 6 6 7 7 6 6 5 4 5 6 5 5 5 4 4 4 5 6 6 6 6 7 8 10 12 13 14 16 17 19 20 21 23 25 26 27 27 26 25 26 27 29 32 35 36 34 32 32 33 35 37 38 42 44 44 43 43 44 44 42 39 39 40 38 36 37 40 39 36 35 36 36 37 43 47 45 43 42 42 42 40 39 37 35 33 32 31 30 29 28 26 24 23
9 7 7 8 6 5 6 7 7 6 5 4 5 6 6 7 7 5 6 6 5 4 4 5 6 8 9 11 13 14 15 16 17 19 19 20 22 24 25 25 26 26 26 25 24 25 27 31 34 35 34 33 33 34 36 37 40 43 43 43 45 46 45 44 43 42 42 40 37 33 32 34 35 34 34 34 35 41 46 44 43 42 41 41 41 41 40 39 38 36 33 31 30 29 28 27 27
8 7 7 8 7 5 6 7 8 7 7 6 7 8 9 9 8 7 7 6 5 5 5 5 7 10 12 13 15 17 17 18 19 20 21 20 21 22 23 23 24 25 26 26 26 24 25 28 30 32 34 35 35 34 35 37 39 41 41 42 45 47 47 45 45 46 46 43 41 38 33 30 31 33 33 32 33 39 43 43 42 40 40 40 41 42 43 43 42 39 36 34 32 32 31 30 29
8 7 7 8 8 6 7 8 9 9 9 9 10 10 10 11 11 10 9 7 7 5 4 6 9 12 14 15 17 19 20 20 21 22 23 23 23 23 23 24 24 24 25 26 27 26 25 26 29 30 32 35 37 37 36 37 38 40 40 41 43 46 47 47 46 47 48 46 44 43 40 35 32 32 32 32 34 39 41 42 42 41 40 41 42 43 43 43 43 41 39 37 36 35 34 32 31
8 6 7 8 9 8 9 10 11 11 11 11 11 11 12 13 13 13 10 9 8 6 4 8 13 15 16 17 19 21 22 23 23 24 25 26 26 26 26 26 25 24 24 25 26 27 27 26 27 30 32 33 36 38 38 38 38 39 40 40 42 44 45 47 47 48 48 48 47 46 44 40 37 35 34 34 36 39 40 41 43 43 42 41 42 43 43 44 44 44 43 41 38 37 35 33 32
9 7 7 8 9 9 10 11 12 12 13 12 12 13 14 15 15 15 13 12 10 8 9 12 15 17 19 21 22 23 24 26 27 27 27 27 27 27 28 28 27 25 25 25 25 26 27 27 26 28 32 33 35 37 39 40 40 40 40 40 41 43 44 46 47 49 49 48 47 47 46 44 42 40 38 36 36 38 40 41 42 43 42 42 43 44 45 46 47 47 47 44 40 39 37 36 34
10 10 9 9 9 10 10 11 12 13 14 13 13 15 16 17 18 18 17 15 12 12 14 16 17 19 22 24 25 26 27 29 30 30 30 30 29 28 29 30 28 26 26 26 25 25 26 28 28 28 30 34 36 37 39 40 41 41 40 40 41 42 44 45 47 49 51 50 48 47 47 45 44 42 41 40 38 37 37 39 41 42 42 44 45 46 47 47 48 49 49 47 44 42 41 39 38
10 9 10 9 8 10 10 11 12 14 15 14 14 17 18 20 21 20 19 18 16 17 19 19 20 23 25 27 28 29 30 31 32 32 32 32 30 29 29 30 29 28 27 26 26 26 27 27 28 29 31 33 36 39 40 40 41 41 40 40 41 43 43 45 47 49 52 52 50 48 47 46 44 43 43 44 43 40 37 36 38 42 44 45 45 45 46 48 49 50 50 50 48 46 44 42 39
9 7 8 9 9 11 12 12 13 15 16 17 17 18 20 21 21 21 21 20 21 22 23 23 24 26 28 30 30 31 32 33 33 34 34 32 30 29 29 30 29 29 28 27 26 26 26 26 26 27 29 32 36 38 39 41 40 40 41 42 42 43 43 44 45 47 50 52 52 51 49 46 45 44 45 45 46 46 44 40 38 39 42 45 45 44 45 47 49 50 51 52 52 50 48 44 41
10 7 8 9 10 12 14 14 14 15 17 19 19 20 21 22 22 23 24 23 24 26 26 26 27 28 30 32 32 33 34 34 34 33 33 32 30 29 29 29 28 29 29 27 25 25 24 23 23 23 25 29 33 34 35 39 40 40 41 42 43 44 44 43 43 45 47 50 51 51 49 47 46 46 47 47 46 47 47 46 44 40 39 41 45 47 48 48 47 48 51 54 55 54 50 47 45
10 9 10 11 13 14 15 15 15 15 17 19 21 21 22 23 24 25 25 24 26 28 27 27 28 30 32 33 33 33 33 32 31 31 30 30 29 28 29 29 28 29 29 26 24 23 21 21 21 23 25 28 31 33 33 36 38 39 41 42 43 45 45 44 44 44 46 48 49 49 49 48 48 48 48 48 47 47 47 47 47 43 40 41 44 47 48 48 46 47 51 54 55 56 52 47 46
9 11 12 14 14 15 15 15 15 16 18 19 21 22 23 23 24 24 23 23 25 26 25 26 28 30 31 32 31 30 29 29 28 28 28 28 27 27 27 27 26 27 28 25 23 20 19 20 21 23 26 29 32 33 34 35 37 38 40 41 43 45 46 45 45 45 45 47 48 49 49 50 49 49 49 47 47 46 46 46 45 42 40 41 45 47 47 47 47 46 49 51 53 56 54 48 46
Wind_Direction
245 245 246 246 247 248 248 248 248 251 254 254 255 255 254 253 252 246 241 242 243 249 253 249 248 248 248 247 248 250 253 257 258 257 257 263 264 265 285 303 312 319 315 317 316 310 315 311 301 285 262 244 242 251 257 259 254 248 243 238 238 242 249 254 259 266 272 275 276 277 277 277 282 289 296 300 303 306 308 311 313 314 315 313 309 306 306 308 311 314 313 311 311 311 312 314 315
244 245 246 246 248 250 251 250 251 253 256 258 258 257 255 252 251 248 241 235 232 236 244 252 255 249 245 246 247 251 251 253 259 265 263 271 286 290 295 300 313 316 303 299 294 291 295 298 297 290 276 256 244 244 249 253 251 247 242 237 235 237 243 251 257 265 272 276 277 277 278 279 279 282 287 291 296 300 304 307 310 311 311 310 306 301 301 303 307 310 310 310 309 309 310 312 314
242 243 244 245 246 250 253 251 252 255 260 262 261 260 255 248 240 230 229 226 226 236 243 251 259 257 253 251 252 254 253 251 257 269 272 277 287 293 296 298 302 292 286 284 282 283 283 285 287 285 280 266 251 245 245 248 248 245 242 237 233 233 237 245 254 261 268 273 275 275 277 279 280 280 281 285 289 293 299 304 307 309 307 306 302 298 297 299 303 306 307 307 306 305 308 310 312
242 243 243 245 246 248 253 254 254 260 270 272 261 252 239 232 219 206 208 214 224 242 254 251 252 257 255 252 255 252 252 257 264 275 279 281 280 283 286 279 266 267 271 273 272 273 275 277 278 279 278 270 258 249 248 248 247 245 241 238 234 233 233 240 248 256 263 268 270 273 276 278 280 280 281 283 285 289 294 300 304 307 304 302 300 297 295 297 301 303 304 304 303 303 305 309 310
245 246 245 248 248 248 255 260 262 265 272 261 224 222 223 219 207 198 199 204 229 253 262 258 254 260 255 250 257 251 254 263 272 281 280 282 281 276 275 269 259 259 261 264 263 263 266 266 269 273 274 270 262 252 249 250 249 247 243 240 237 236 234 237 243 250 258 262 266 270 274 276 278 279 281 284 286 288 292 297 301 304 302 299 297 295 293 295 300 301 302 302 301 301 303 306 308
251 251 249 249 251 251 255 263 272 255 244 228 189 210 217 217 207 200 201 197 209 279 284 272 264 268 263 260 263 263 266 270 277 279 275 279 281 273 271 272 267 262 258 257 257 257 260 262 263 265 267 267 263 254 250 251 250 248 246 242 239 239 237 237 240 244 251 257 262 267 271 273 276 277 280 284 288 290 292 294 297 300 299 297 295 294 291 293 298 300 300 299 299 299 300 304 307
253 254 251 250 254 256 257 263 268 240 238 223 189 210 209 209 213 208 205 196 187 256 273 271 269 269 266 267 267 271 273 274 280 277 274 274 268 258 268 273 270 266 260 253 251 252 254 260 263 264 265 263 261 255 250 250 250 249 247 244 241 239 239 238 240 243 247 254 259 263 269 274 277 280 282 285 286 289 291 292 294 295 295 294 293 291 290 291 295 298 297 297 295 295 297 302 305
252 253 252 252 256 258 261 259 250 233 235 229 201 208 200 199 216 215 207 202 196 222 245 275 286 279 274 273 271 275 273 272 276 273 272 268 261 260 267 269 270 271 265 256 252 252 252 255 260 262 264 264 262 257 251 249 249 248 246 244 241 239 240 239 239 243 247 251 256 261 268 275 280 283 285 285 284 285 288 290 291 292 291 290 289 288 287 288 292 295 295 294 293 293 295 299 303
251 255 255 253 255 257 259 254 245 231 228 232 213 208 199 193 207 211 209 212 211 230 269 292 289 284 279 274 272 272 268 267 270 269 267 264 262 263 267 267 267 269 267 262 258 256 258 260 261 260 262 266 265 260 253 249 248 247 245 242 239 237 238 237 237 243 247 252 256 261 265 270 278 283 284 284 283 283 285 288 290 290 289 286 285 284 283 284 288 292 293 291 290 291 292 295 299
252 256 257 255 256 256 255 251 244 234 230 233 225 220 208 190 192 192 199 211 222 230 255 273 269 270 268 266 269 267 264 267 270 270 267 265 264 265 268 269 268 266 262 265 267 262 260 262 265 264 263 267 269 266 257 251 249 247 245 241 237 234 236 236 237 243 250 255 261 265 266 266 270 276 281 282 282 282 283 286 288 289 288 285 282 280 279 279 284 288 288 287 287 288 289 291 293
253 255 258 257 257 257 253 247 240 234 234 238 233 228 215 201 195 188 190 189 221 239 237 256 258 254 256 261 268 266 264 269 272 272 270 267 266 267 269 267 268 267 264 267 272 270 262 261 263 263 261 262 266 266 260 253 249 246 243 239 236 232 233 235 237 243 250 256 263 269 271 271 270 272 277 281 282 283 284 285 287 288 288 286 281 277 275 275 280 283 282 281 283 284 284 285 288
254 254 258 258 257 255 251 246 240 236 232 227 214 212 214 219 214 203 202 184 206 240 234 248 253 249 254 262 269 267 262 265 270 271 272 270 267 269 268 268 271 270 268 266 267 268 265 263 260 255 256 258 260 263 260 254 249 246 241 237 234 230 230 233 235 240 246 252 259 266 270 273 275 276 278 280 282 284 284 285 286 287 287 286 282 277 273 273 276 276 276 277 279 280 282 282 283
255 254 255 257 256 254 251 247 241 239 230 216 211 217 221 228 229 220 216 205 217 234 235 243 248 250 254 258 262 262 258 260 264 266 268 269 270 273 273 276 279 276 271 262 259 260 262 266 263 255 252 254 256 257 256 253 249 246 243 238 234 230 229 231 234 237 242 248 254 259 264 268 272 275 277 279 281 283 284 285 285 286 285 285 282 276 271 271 272 271 271 274 276 278 279 280 281
254 253 253 254 255 254 253 249 244 239 233 227 226 228 225 225 231 223 216 223 233 238 238 244 247 251 256 255 256 258 256 257 261 263 265 268 272 276 277 281 281 276 270 257 255 261 265 266 264 261 258 255 252 251 250 249 247 245 243 240 236 232 229 231 233 236 239 244 249 253 258 263 266 269 273 276 279 281 283 284 284 284 283 283 280 275 270 268 267 265 266 270 272 273 274 275 278
253 254 254 254 253 255 254 250 245 239 234 237 236 228 221 224 226 216 211 222 243 247 241 242 246 251 259 259 259 260 260 260 263 266 270 271 272 274 278 283 277 263 259 255 259 267 271 269 265 263 262 261 253 246 245 244 246 247 244 242 239 235 232 231 233 236 239 243 248 252 256 260 263 266 270 274 277 278 280 282 283 283 281 279 277 273 268 266 263 260 264 267 268 269 271 273 276
252 253 254 254 254 254 253 250 244 236 234 237 235 224 219 224 220 213 213 214 232 247 240 237 242 248 254 258 261 262 261 262 265 270 273 272 272 274 276 277 267 257 259 263 265 265 265 264 263 260 257 258 250 242 242 241 243 248 248 245 242 238 235 233 233 236 239 243 249 255 258 260 263 267 270 273 275 276 276 278 279 280 278 274 272 270 266 263 260 258 262 264 265 267 269 274 278
252 253 254 255 255 252 249 247 240 235 237 236 231 223 221 221 215 212 217 217 223 236 236 233 238 246 249 251 256 259 259 260 263 266 267 268 270 272 272 270 263 264 268 268 268 262 257 256 256 255 252 249 242 237 241 244 245 247 250 249 245 242 238 235 234 236 239 243 249 255 258 259 263 268 270 272 274 274 274 274 274 275 274 271 267 265 263 259 256 255 258 259 261 264 268 272 276
254 255 256 256 255 251 244 239 236 236 238 238 234 227 223 220 214 213 219 225 228 234 238 234 234 243 250 250 253 257 257 257 259 260 261 264 267 267 266 264 261 263 267 265 266 263 257 256 255 253 250 245 237 235 243 251 253 251 251 252 249 245 242 239 237 237 239 242 247 252 256 257 262 268 270 271 273 274 274 272 270 269 269 266 262 261 259 256 253 251 252 254 256 259 263 267 271
256 256 257 256 253 247 239 233 235 237 237 238 238 233 225 221 217 214 219 227 231 236 242 239 234 237 244 249 253 256 255 255 258 259 264 268 266 263 262 261 261 262 263 263 265 264 261 259 258 255 251 245 241 243 250 257 258 254 251 253 253 249 246 243 241 240 240 241 243 248 252 256 262 267 269 271 273 274 273 271 266 263 264 262 259 257 255 253 251 248 247 248 251 255 258 262 266
257 257 257 255 251 243 235 235 241 242 240 240 239 238 230 222 220 218 219 225 229 235 241 240 238 238 242 249 254 257 257 255 255 260 271 273 265 261 262 263 267 266 264 265 265 265 263 260 259 258 255 250 248 251 258 260 256 252 251 252 254 253 251 248 245 243 243 242 242 245 251 256 263 266 267 269 271 272 271 268 263 260 260 259 256 254 253 251 250 247 245 245 247 252 255 259 263
256 256 254 250 248 243 238 242 247 248 248 246 244 243 236 227 226 225 222 225 230 234 238 238 238 240 242 247 251 256 258 253 254 264 272 270 264 265 267 266 267 267 266 266 263 262 261 259 258 257 257 254 250 251 257 258 252 250 249 250 252 253 252 250 248 246 245 244 243 244 248 255 261 263 263 265 268 271 271 267 261 258 258 255 253 251 250 248 248 248 246 245 245 249 254 258 262
254 253 251 248 246 244 245 248 250 251 253 251 250 247 244 237 232 230 227 227 235 238 240 240 239 240 241 245 249 255 259 255 256 264 265 262 265 270 271 266 265 266 266 261 259 263 263 261 259 257 255 253 247 244 245 246 246 247 247 248 250 251 251 249 247 246 244 243 243 243 245 250 256 257 256 259 266 271 270 266 260 257 255 251 250 249 248 247 247 248 247 246 245 248 253 257 262
253 252 250 249 246 245 249 253 252 255 256 255 257 255 253 250 241 236 230 227 235 243 245 244 244 244 244 246 250 255 260 259 259 262 262 262 265 268 269 268 267 267 265 259 259 265 265 261 260 258 255 252 246 241 237 235 237 242 243 244 248 250 251 249 246 243 242 241 240 240 242 244 248 250 249 253 262 268 268 265 260 257 253 248 248 249 249 249 247 248 248 248 247 247 252 257 261
255 254 252 248 245 246 249 252 254 256 259 260 262 260 259 256 248 244 238 231 232 239 247 249 249 248 248 249 250 254 260 261 261 261 262 263 264 264 266 267 266 265 263 261 260 260 257 255 256 256 255 253 249 246 241 236 233 233 235 237 241 247 250 250 246 242 240 239 237 236 237 239 242 246 246 249 259 265 265 263 261 257 253 249 250 250 251 251 249 249 250 250 248 247 251 256 259
260 259 259 253 247 250 254 257 260 262 266 266 263 260 259 259 255 250 246 242 236 236 242 247 249 252 252 252 251 255 260 262 263 263 262 262 262 263 264 262 261 260 258 257 255 252 250 250 251 253 253 252 250 249 248 247 242 234 230 230 232 239 245 247 246 243 239 237 235 234 234 234 237 241 242 245 254 259 260 259 260 258 256 256 254 253 253 252 252 251 252 252 249 248 249 253 256
261 262 264 263 258 257 261 264 267 271 272 268 263 256 253 253 254 252 249 246 241 239 242 244 246 249 251 251 252 257 261 262 264 266 264 262 262 262 262 261 259 258 255 253 252 251 250 249 248 249 249 247 247 249 249 251 252 248 242 237 233 232 235 240 241 240 239 236 233 231 231 231 232 238 240 243 249 252 255 256 258 260 261 261 259 256 255 253 254 252 252 253 252 250 249 251 253
263 266 268 269 263 254 254 256 258 261 259 259 262 260 255 250 249 250 249 247 243 241 242 245 246 247 248 250 253 257 259 260 262 264 265 264 263 263 263 263 261 259 256 254 254 253 253 253 250 247 247 245 244 246 247 248 251 254 252 248 244 236 229 229 231 234 237 235 231 228 228 229 229 234 240 243 246 248 251 254 256 260 261 261 259 257 255 253 251 250 251 253 252 252 250 250 250
268 271 269 264 258 252 249 248 251 254 253 253 257 260 259 255 249 246 246 248 248 244 242 244 247 249 251 252 255 257 258 259 260 261 263 265 266 267 266 266 264 261 259 257 256 255 256 258 255 251 249 247 245 246 247 247 246 250 253 253 252 243 231 223 220 224 231 232 228 226 225 226 227 230 236 240 244 247 249 252 254 258 259 258 256 253 252 250 246 245 246 249 250 251 251 250 249
264 263 261 258 257 255 251 247 246 251 253 252 252 255 257 258 255 250 247 245 243 242 242 243 246 249 252 254 256 258 261 262 262 262 264 267 269 269 267 265 263 260 259 259 258 256 256 256 257 256 253 250 248 248 247 247 248 250 253 256 252 243 233 226 219 215 220 227 226 225 225 225 225 226 229 233 239 245 248 250 252 254 256 254 252 250 249 246 243 241 242 244 247 249 251 250 248
247 246 247 248 250 246 239 242 241 240 248 249 243 243 249 260 265 261 252 241 235 237 240 241 243 245 247 250 251 252 255 256 258 260 261 263 265 265 263 262 260 259 258 258 258 257 257 257 255 257 258 254 250 249 248 248 251 252 253 255 246 236 234 231 226 218 213 219 224 225 226 226 225 224 225 227 231 239 246 249 250 251 251 248 247 246 245 244 241 240 240 239 241 245 248 249 247
230 229 230 226 219 210 206 213 224 223 222 211 200 215 232 256 267 260 247 234 232 235 239 240 240 241 243 245 246 246 246 245 246 250 254 255 257 259 260 260 260 259 258 258 258 257 258 259 257 257 258 256 253 252 251 249 252 254 256 257 243 233 235 233 231 227 217 214 220 224 227 229 231 229 227 226 225 231 241 246 248 247 244 241 242 241 240 241 238 237 237 235 234 238 243 246 247
224 221 222 216 202 195 194 196 203 174 106 134 145 169 208 216 220 215 217 244 240 229 229 234 238 240 244 247 248 248 247 244 242 243 247 249 251 255 258 259 260 261 260 259 259 259 260 261 261 260 256 254 254 253 252 250 251 253 254 259 252 240 237 233 232 231 225 218 217 221 224 228 234 237 239 236 228 226 234 241 244 242 238 234 235 236 236 236 236 234 233 232 232 234 238 242 243
211 210 213 214 210 199 192 193 170 114 92 143 162 184 214 229 224 196 229 260 255 246 239 240 241 243 246 251 254 254 254 252 249 245 245 246 247 250 254 257 259 261 263 262 262 263 263 264 264 263 258 254 253 253 253 250 250 251 252 258 262 248 235 232 230 230 230 227 222 220 221 224 229 236 243 247 243 235 230 234 237 235 232 228 228 232 232 232 233 230 228 229 230 231 232 235 237
197 200 202 200 205 194 184 196 174 116 88 167 192 221 245 253 224 189 218 250 253 256 257 259 259 254 253 259 265 266 264 264 262 257 252 249 247 247 250 253 256 258 261 263 264 264 264 264 264 262 260 257 255 253 253 252 251 252 252 255 263 256 239 232 231 230 231 232 231 227 223 222 225 230 237 244 248 246 238 231 230 229 226 223 223 228 229 228 228 225 222 224 226 227 226 229 233
201 192 184 172 189 196 180 196 211 211 232 196 206 232 241 227 212 205 227 246 253 257 262 270 273 268 262 264 271 277 279 279 278 275 269 262 257 255 254 257 259 259 259 260 261 262 262 262 263 261 259 257 256 255 253 253 252 252 254 254 257 260 249 237 235 234 232 232 235 235 231 226 225 229 234 238 243 247 243 230 220 223 227 224 220 223 226 222 221 221 219 219 220 222 222 225 231
192 176 170 167 187 201 188 192 203 212 232 229 215 217 224 227 230 235 241 248 254 259 265 271 273 269 264 265 272 282 289 293 293 291 288 282 275 270 267 269 270 266 263 263 262 263 263 262 262 261 258 257 257 255 254 253 253 253 254 254 253 258 259 248 240 239 235 232 233 236 237 235 231 231 234 237 240 243 240 223 207 211 224 226 220 218 220 216 214 217 217 216 216 218 218 221 229
178 169 171 178 197 210 204 203 211 219 232 238 217 205 216 232 243 247 249 252 256 263 271 276 277 275 276 280 285 293 302 307 302 294 288 284 279 275 272 273 273 268 262 261 261 263 265 264 262 259 257 257 256 255 254 252 253 253 252 253 252 255 260 257 247 242 237 234 232 233 235 237 238 238 238 238 237 235 231 222 207 201 209 220 220 216 215 212 209 212 215 215 215 215 216 216 222
185 178 178 187 203 213 216 216 226 235 238 245 236 217 218 229 245 251 250 254 260 268 276 282 283 281 282 285 289 294 304 307 299 288 283 282 280 277 275 275 274 271 264 260 261 262 264 265 263 259 255 255 255 254 252 251 251 252 252 252 252 252 253 254 250 245 242 239 236 234 236 238 240 242 240 236 232 227 225 224 214 202 201 210 218 217 214 209 207 209 212 213 213 211 212 213 217
195 195 194 200 209 215 220 223 231 239 241 244 244 235 229 231 244 253 251 253 259 266 271 276 278 277 277 280 284 288 292 293 288 284 282 279 278 278 279 280 280 278 274 268 265 265 265 264 262 258 253 251 253 253 251 250 249 249 250 251 250 249 247 247 251 250 247 246 243 239 239 240 242 242 237 230 228 224 221 222 217 208 202 203 210 216 214 208 207 209 210 210 210 207 207 211 215
192 198 202 208 211 213 219 227 238 243 243 246 245 239 235 235 245 255 256 254 254 260 265 268 270 272 275 277 279 281 281 281 282 285 285 282 281 280 280 280 279 279 280 277 272 268 267 265 263 259 253 249 250 251 249 248 247 245 246 249 250 250 248 246 247 249 248 248 247 243 242 243 243 242 235 230 228 225 222 222 218 210 203 199 203 210 212 211 210 211 211 209 208 206 205 208 212
184 189 191 200 206 213 221 234 247 248 244 249 250 245 242 242 249 256 258 257 255 256 260 262 264 265 269 273 274 275 274 273 278 285 287 286 285 284 282 281 278 276 278 279 277 273 270 268 266 262 256 250 248 248 248 247 245 243 242 245 248 249 249 245 243 244 246 247 246 244 245 245 244 243 239 234 230 227 225 224 220 214 206 202 203 207 209 212 214 214 214 211 208 206 206 207 211
183 186 181 188 198 223 232 238 249 251 248 250 252 250 250 250 254 256 258 261 260 258 255 254 256 258 261 264 266 268 271 272 278 283 285 286 286 286 284 282 281 278 276 277 278 275 271 268 267 264 260 254 249 245 246 248 246 242 240 241 243 244 243 242 242 243 243 246 246 244 244 244 244 245 245 238 230 227 226 222 220 219 214 208 206 207 210 213 215 217 218 216 212 209 208 209 212
186 194 194 200 209 238 238 238 245 252 256 257 254 251 252 254 256 260 262 263 265 266 257 245 246 252 256 260 262 267 276 283 287 289 289 288 287 286 285 283 281 278 276 276 277 276 274 269 266 263 259 256 253 247 246 247 246 242 239 238 241 241 239 238 238 240 241 242 243 243 244 243 242 245 247 241 232 228 227 222 218 219 219 214 207 205 210 215 217 219 221 221 218 213 211 213 215
199 212 231 243 267 274 255 247 246 249 256 260 257 252 256 259 255 259 268 270 273 285 279 244 238 248 256 263 269 275 283 289 291 292 292 291 289 286 284 283 281 278 274 271 270 272 273 271 268 265 260 256 254 252 249 247 246 243 239 238 240 243 241 236 233 238 241 239 240 243 243 242 241 241 243 241 234 228 226 223 219 218 220 218 211 206 209 214 217 221 224 224 223 218 215 216 219
214 236 259 264 274 284 289 280 262 258 260 257 254 253 261 261 242 246 268 280 278 269 262 254 249 256 265 270 275 280 285 288 292 293 293 293 292 289 286 283 281 278 274 270 266 266 267 267 267 266 263 258 255 254 252 250 247 244 240 238 240 242 241 239 238 242 243 242 244 245 244 243 242 239 239 241 237 228 223 221 218 218 219 219 215 211 211 214 217 222 226 228 227 223 219 218 220
217 233 256 268 264 264 288 303 289 276 273 264 256 252 251 247 245 266 285 285 266 247 248 259 267 274 275 275 280 286 289 293 297 297 295 294 293 293 291 289 286 281 277 273 269 267 266 265 264 264 263 259 256 254 253 252 249 245 241 238 238 239 240 240 241 243 242 242 245 244 243 244 243 240 238 241 240 229 222 220 218 217 218 218 216 214 214 216 218 221 226 230 231 230 225 221 221
228 239 262 270 252 253 283 302 301 299 301 293 276 266 259 266 283 295 288 269 244 240 256 272 275 274 273 280 288 295 298 299 299 298 297 295 292 291 291 292 292 290 285 278 273 269 267 266 264 263 262 258 256 254 252 252 251 248 244 239 237 238 240 240 240 241 240 241 244 245 244 242 242 242 240 242 242 230 222 221 219 219 220 219 219 218 217 218 220 222 225 229 234 235 232 227 224
245 247 260 269 261 261 282 288 292 298 301 293 280 275 273 276 284 282 271 260 244 253 279 278 275 277 283 293 299 303 303 301 300 300 299 297 293 290 291 292 293 294 292 287 281 274 270 268 265 263 262 259 256 254 251 250 251 251 247 242 239 237 238 239 239 240 241 241 242 242 243 242 240 242 242 245 242 228 220 220 220 221 222 222 223 224 223 221 220 221 224 227 232 235 236 233 230
251 251 257 269 273 273 279 284 288 289 283 279 273 270 276 284 286 278 276 279 283 296 308 304 297 293 294 301 305 305 304 302 302 301 300 299 295 293 294 295 295 295 295 293 290 284 277 273 269 265 262 260 258 254 251 249 248 250 250 246 242 239 238 238 238 239 241 242 241 239 242 245 241 240 241 242 236 223 219 221 221 223 225 225 227 229 229 228 224 222 223 225 229 233 235 233 233
254 265 270 274 274 270 267 270 274 276 274 274 274 274 277 279 279 283 292 294 285 286 315 320 301 290 289 293 297 300 300 300 301 302 301 299 298 299 300 300 300 299 298 297 294 290 284 277 273 269 265 260 258 255 251 248 247 248 249 247 245 242 239 237 236 237 238 240 240 240 242 244 243 241 239 236 228 221 221 223 224 226 227 229 230 231 233 233 231 228 226 226 228 231 234 233 233
260 267 270 272 273 265 259 261 266 271 271 271 273 273 272 273 280 291 298 293 277 266 285 292 283 280 283 286 293 299 300 299 299 300 300 297 297 299 298 298 300 302 303 300 295 290 285 280 274 270 268 264 261 257 253 249 246 246 247 246 244 243 241 239 236 236 237 238 239 241 243 243 242 240 239 235 228 223 223 226 227 229 229 231 233 233 235 236 234 231 230 229 229 231 234 234 234
263 264 262 265 269 266 264 268 271 272 272 273 272 270 271 277 284 288 288 288 286 274 271 273 275 280 286 290 296 302 303 301 298 297 298 296 294 293 291 291 294 299 303 301 297 290 284 281 276 271 269 266 264 261 256 251 246 243 243 244 244 243 242 240 237 236 237 238 239 240 241 241 239 238 237 236 233 230 229 228 228 228 229 232 234 234 234 235 234 232 231 230 229 231 233 234 234
268 272 273 270 269 267 268 271 272 275 278 280 277 275 278 282 283 283 285 291 292 282 277 278 282 288 291 293 296 298 301 300 296 295 296 296 294 291 288 287 289 294 298 300 299 292 285 280 278 274 270 267 264 261 258 254 248 244 242 243 244 243 241 240 238 236 237 237 238 239 238 238 237 236 236 236 235 235 235 233 231 229 230 234 237 237 235 234 234 232 231 232 231 230 232 233 232
278 283 279 275 270 269 272 273 273 276 278 279 277 277 281 283 285 288 292 297 298 292 287 289 293 294 293 294 297 299 300 300 296 295 295 295 294 292 289 288 290 293 296 300 301 294 288 283 279 275 272 269 264 261 258 255 252 247 243 241 242 243 242 241 239 237 236 237 237 237 237 236 235 235 235 235 234 235 237 237 235 234 235 236 238 239 238 236 235 232 230 232 233 232 232 232 233
281 276 265 267 271 273 275 275 274 277 278 278 276 275 279 283 286 290 294 299 301 297 295 298 299 298 297 297 299 301 300 299 297 296 295 295 295 294 291 289 292 294 297 302 302 296 291 287 282 279 276 274 270 264 257 254 253 250 244 240 238 240 242 242 242 239 237 238 237 237 237 236 235 235 235 235 235 236 238 238 238 238 239 240 240 239 238 238 237 235 232 232 233 233 232 231 234
280 267 257 269 275 274 275 274 274 277 279 280 280 280 284 288 290 292 296 302 303 299 299 303 303 301 299 300 300 300 299 298 297 297 296 297 297 296 293 292 293 294 297 304 304 299 296 292 288 286 284 281 278 271 260 253 251 249 246 241 237 237 238 238 240 240 238 238 238 237 236 236 235 235 235 235 236 237 238 238 239 241 242 243 242 242 241 240 241 239 237 234 233 234 233 231 232
273 266 269 280 280 277 278 278 277 276 278 282 285 287 290 292 292 295 301 305 301 298 301 304 303 301 300 300 300 300 299 299 298 298 298 297 298 297 295 294 295 295 299 306 306 300 297 294 292 291 289 285 282 275 263 253 250 247 245 242 237 234 234 235 236 238 237 237 237 236 234 234 234 235 235 235 236 237 237 237 238 242 247 246 244 245 245 244 245 243 238 237 237 236 235 233 232
266 262 272 282 284 282 281 278 278 280 281 284 288 290 292 292 294 298 303 300 296 297 301 301 300 300 299 299 300 300 301 301 300 299 298 297 296 295 294 294 294 294 300 306 304 298 294 293 294 296 296 293 286 276 265 255 250 246 243 241 237 234 232 232 233 235 236 236 236 235 233 232 233 235 236 236 237 238 238 237 237 239 244 245 245 246 246 246 249 246 237 236 242 241 237 236 236